Location: Wellington
(41.3000°S, 174.7830°E)
Time: 14:16:59
(UTC+12:00)

ISS - Visible Passes

Search period start: 01 July 2022 00:00
Search period end: 11 July 2022 00:00
Orbit: 414 x 420 km, 51.6° (Epoch: 30 June)

Date Brightness Start Highest point End Pass type
(mag) Time Alt. Az. Time Alt. Az. Time Alt. Az.
01 Jul -1.5 18:57:30 10° SW 18:58:46 17° SSW 18:58:46 17° SSW visible
02 Jul -1.9 18:09:24 10° SSW 18:11:49 18° SSE 18:12:40 16° SSE visible
03 Jul -2.2 18:57:38 10° SW 18:59:35 27° SSW 18:59:35 27° SSW visible
04 Jul -2.6 18:09:32 10° SW 18:12:31 27° SSE 18:13:41 22° ESE visible
04 Jul -0.6 19:46:08 10° WSW 19:46:37 13° WSW 19:46:37 13° WSW visible
05 Jul -3.6 18:57:50 10° SW 19:00:53 69° WSW 19:00:53 69° WSW visible
06 Jul -3.6 18:09:37 10° SW 18:12:59 55° SSE 18:15:21 17° ENE visible
06 Jul -0.7 19:47:04 10° W 19:48:20 16° WNW 19:48:20 16° WNW visible
07 Jul -1.9 18:58:18 10° WSW 19:01:21 30° NW 19:03:08 19° N visible
08 Jul -3.0 18:09:49 10° WSW 18:13:10 54° NW 18:16:29 10° NE visible
09 Jul -0.3 19:00:10 10° WNW 19:01:10 11° NW 19:02:10 10° NW visible
10 Jul -0.7 18:10:34 10° W 18:13:04 19° NW 18:15:33 10° N visible
